Pagosa Springs, CO

4:42 AM MDT on April 26, 2017 (GMT -0600)
Pagosa Springs

Weather History for KPSO - March, 2012

Change the Weather History Date:

Friday, March 30, 2012

  Actual Average (KE33) Record (KE33)
Temperature  
Mean Temperature 47 °F -  
Max Temperature 66 °F 48 °F 64 °F (2002)
Min Temperature 28 °F 29 °F 15 °F (1998)
Degree Days  
Heating Degree Days 18    
Moisture  
Dew Point 18 °F    
Average Humidity 38    
Maximum Humidity 72    
Minimum Humidity 14    
Precipitation  
Precipitation 0.00 in - - ()
Sea Level Pressure  
Sea Level Pressure 30.11 in    
Wind  
Wind Speed 2 mph (SW)    
Max Wind Speed 17 mph    
Max Gust Speed 23 mph    
Visibility 10 miles    
Events Thunderstorm    
Averages and records for this station are not official NWS values.
T = Trace of Precipitation, MM = Missing Value Source: NWS Daily Summary

Daily Weather History Graph

Daily Weather History Graph

Search for Another Location

Airport or City:

Trip Planner

Search our weather history database for the weather conditions in past years. The results will help you decide how hot, cold, wet, or windy it might be!

Date:

Astronomy

Mar. 30, 2012 Rise Set
Actual Time 6:55 AM MDT 7:29 PM MDT
Civil Twilight 6:29 AM MDT 7:55 PM MDT
Nautical Twilight 5:58 AM MDT 8:26 PM MDT
Astronomical Twilight 5:27 AM MDT 8:58 PM MDT
Moon 12:10 PM MDT (3/30) 2:02 AM MDT (3/30)
Length of Visible Light 13h 26m
Length of Day
12h 33m
Waxing Crescent, 49% of the Moon is Illuminated
Mar 30
Waxing Crescent
Mar 30
First Quarter
Apr 6
Full
Apr 13
Last Quarter
Apr 21
New

Hourly Weather History & Observations

Time (MDT) Temp. Windchill Dew Point Humidity Pressure Visibility Wind Dir Wind Speed Gust Speed Precip Events Conditions
12:15 AM 38.8 °F - 20.7 °F 48% 30.11 in 10.0 mi Calm Calm - N/A   Clear
12:35 AM 37.8 °F - 20.3 °F 49% 30.11 in 10.0 mi Calm Calm - N/A   Clear
12:55 AM 38.5 °F - 21.6 °F 51% 30.11 in 10.0 mi Calm Calm - N/A   Clear
1:15 AM 38.1 °F - 19.8 °F 48% 30.12 in 10.0 mi Calm Calm - N/A   Clear
1:35 AM 38.1 °F - 18.7 °F 46% 30.12 in 10.0 mi Calm Calm - N/A   Clear
1:55 AM 34.2 °F - 20.3 °F 57% 30.12 in 10.0 mi Calm Calm - N/A   Clear
2:15 AM 34.5 °F - 19.8 °F 55% 30.12 in 10.0 mi Calm Calm - N/A   Clear
2:35 AM 32.9 °F - 21.7 °F 64% 30.11 in 10.0 mi Calm Calm - N/A   Clear
2:55 AM 34.3 °F - 20.5 °F 57% 30.11 in 10.0 mi Calm Calm - N/A   Clear
3:15 AM 33.3 °F - 19.4 °F 57% 30.11 in 10.0 mi Calm Calm - N/A   Clear
3:35 AM 33.4 °F - 19.6 °F 57% 30.11 in 10.0 mi Calm Calm - N/A   Clear
3:55 AM 30.7 °F - 20.7 °F 66% 30.11 in 10.0 mi Calm Calm - N/A   Clear
4:15 AM 31.1 °F - 19.9 °F 63% 30.10 in 10.0 mi Calm Calm - N/A   Clear
4:55 AM 30.4 °F 26.9 °F 19.2 °F 63% 30.09 in 10.0 mi WNW 3.5 mph - N/A   Clear
5:15 AM 31.1 °F - 18.9 °F 61% 30.09 in 10.0 mi Calm Calm - N/A   Clear
5:35 AM 30.4 °F - 19.4 °F 64% 30.09 in 10.0 mi Calm Calm - N/A   Clear
5:55 AM 31.3 °F - 19.9 °F 63% 30.09 in 10.0 mi Calm Calm - N/A   Clear
6:15 AM 28.8 °F - 20.1 °F 70% 30.09 in 10.0 mi Calm Calm - N/A   Clear
6:35 AM 28.0 °F - 20.1 °F 72% 30.09 in 10.0 mi Calm Calm - N/A   Clear
6:55 AM 28.2 °F - 19.6 °F 70% 30.10 in 10.0 mi Calm Calm - N/A   Clear
7:15 AM 28.2 °F - 19.0 °F 68% 30.11 in 10.0 mi Calm Calm - N/A   Clear
7:35 AM 30.0 °F - 21.0 °F 69% 30.12 in 10.0 mi Calm Calm - N/A   Clear
7:55 AM 32.4 °F - 21.0 °F 63% 30.12 in 10.0 mi Calm Calm - N/A   Clear
8:15 AM 36.7 °F - 19.4 °F 50% 30.13 in 10.0 mi Calm Calm - N/A   Clear
8:35 AM 38.8 °F - 19.2 °F 45% 30.14 in 10.0 mi Calm Calm - N/A   Clear
8:55 AM 41.7 °F - 16.0 °F 35% 30.14 in 10.0 mi Calm Calm - N/A   Clear
9:15 AM 44.2 °F - 17.6 °F 34% 30.15 in 10.0 mi Calm Calm - N/A   Clear
9:35 AM 46.6 °F - 19.0 °F 33% 30.14 in 10.0 mi Calm Calm - N/A   Clear
9:55 AM 48.2 °F - 18.0 °F 30% 30.15 in 10.0 mi Calm Calm - N/A   Clear
10:35 AM 52.0 °F - 15.8 °F 24% 30.16 in 10.0 mi SW 4.6 mph - N/A   Clear
10:55 AM 52.7 °F - 13.6 °F 21% 30.15 in 10.0 mi SW 3.5 mph - N/A   Clear
11:15 AM 54.0 °F - 15.4 °F 22% 30.15 in 10.0 mi South 4.6 mph - N/A Thunderstorm Thunderstorm
11:35 AM 54.9 °F - 14.5 °F 20% 30.14 in 10.0 mi South 3.5 mph - N/A   Clear
11:55 AM 56.3 °F - 14.7 °F 19% 30.14 in 10.0 mi SW 3.5 mph - N/A   Clear
12:15 PM 57.6 °F - 13.8 °F 18% 30.13 in 10.0 mi SSW 4.6 mph - N/A   Clear
12:35 PM 58.5 °F - 15.1 °F 18% 30.13 in 10.0 mi South 6.9 mph - N/A   Clear
12:55 PM 59.5 °F - 15.4 °F 18% 30.12 in 10.0 mi SW 8.1 mph - N/A   Clear
1:15 PM 59.2 °F - 16.3 °F 19% 30.11 in 10.0 mi WSW 9.2 mph - N/A   Clear
1:35 PM 59.9 °F - 16.7 °F 19% 30.11 in 10.0 mi WSW 9.2 mph - N/A   Clear
1:55 PM 61.0 °F - 12.6 °F 15% 30.11 in 10.0 mi South 5.8 mph - N/A   Clear
2:15 PM 61.7 °F - 15.1 °F 16% 30.11 in 10.0 mi SSW 9.2 mph 16.1 mph N/A   Clear
2:35 PM 62.8 °F - 12.2 °F 14% 30.10 in 10.0 mi Calm Calm - N/A   Clear
2:55 PM 63.1 °F - 14.2 °F 15% 30.09 in 10.0 mi South 6.9 mph 16.1 mph N/A   Clear
3:15 PM 63.7 °F - 16.7 °F 16% 30.09 in 10.0 mi WSW 4.6 mph 16.1 mph N/A   Clear
3:35 PM 64.2 °F - 17.4 °F 16% 30.08 in 10.0 mi SW 8.1 mph - N/A   Clear
3:55 PM 64.4 °F - 18.5 °F 17% 30.07 in 10.0 mi SW 12.7 mph 16.1 mph N/A   Clear
4:15 PM 63.3 °F - 17.2 °F 17% 30.07 in 10.0 mi SSE 3.5 mph 17.3 mph N/A   Clear
4:35 PM 65.5 °F - 17.8 °F 16% 30.07 in 10.0 mi SW 10.4 mph 17.3 mph N/A   Scattered Clouds
4:55 PM 64.8 °F - 16.3 °F 15% 30.07 in 10.0 mi SW 12.7 mph 17.3 mph N/A   Scattered Clouds
5:15 PM 66.0 °F - 16.3 °F 15% 30.07 in 10.0 mi South 17.3 mph 23.0 mph N/A   Clear
5:35 PM 64.6 °F - 16.0 °F 15% 30.07 in 10.0 mi WSW 13.8 mph 18.4 mph N/A   Clear
5:55 PM 62.1 °F - 16.2 °F 17% 30.08 in 10.0 mi SW 11.5 mph 19.6 mph N/A   Clear
6:15 PM 63.1 °F - 15.3 °F 16% 30.08 in 10.0 mi SW 10.4 mph 16.1 mph N/A   Clear
6:35 PM 63.3 °F - 14.9 °F 15% 30.09 in 10.0 mi SW 10.4 mph - N/A   Clear
6:55 PM 62.4 °F - 15.6 °F 16% 30.09 in 10.0 mi WSW 13.8 mph 19.6 mph N/A   Clear
7:15 PM 60.6 °F - 16.7 °F 18% 30.09 in 10.0 mi SW 11.5 mph 16.1 mph N/A   Clear
7:55 PM 55.6 °F - 19.2 °F 24% 30.10 in 10.0 mi West 6.9 mph - N/A   Clear
8:15 PM 53.6 °F - 19.4 °F 26% 30.11 in 10.0 mi Calm Calm - N/A   Clear
8:35 PM 53.4 °F - 18.1 °F 25% 30.12 in 10.0 mi Calm Calm - N/A   Clear
8:55 PM 49.8 °F - 20.1 °F 31% 30.12 in 10.0 mi Calm Calm - N/A   Clear
9:15 PM 45.3 °F 44.0 °F 23.7 °F 43% 30.13 in 10.0 mi NNE 3.5 mph - N/A   Clear
9:35 PM 45.0 °F - 25.0 °F 46% 30.14 in 10.0 mi Calm Calm - N/A   Clear
9:55 PM 43.9 °F - 23.7 °F 45% 30.14 in 10.0 mi Calm Calm - N/A   Clear
10:15 PM 42.4 °F - 25.3 °F 51% 30.14 in 10.0 mi Calm Calm - N/A   Clear
10:35 PM 43.0 °F 41.3 °F 22.6 °F 45% 30.15 in 10.0 mi NNE 3.5 mph - N/A   Clear
10:55 PM 42.6 °F - 21.9 °F 44% 30.15 in 10.0 mi Calm Calm - N/A   Clear
11:15 PM 42.1 °F - 23.0 °F 47% 30.14 in 10.0 mi Calm Calm - N/A   Clear
11:35 PM 41.0 °F 37.1 °F 22.1 °F 47% 30.15 in 10.0 mi East 5.8 mph - N/A   Clear
11:55 PM 39.7 °F 37.6 °F 22.8 °F 51% 30.14 in 10.0 mi NNE 3.5 mph - N/A   Clear